Regional Weather Roundup
Issued by NWS

Home | Current Version | Previous Version | Text Only | Print | Product List | Glossary On
Versions: 1 2 3 4 5 6 7 8 9 10 11 12 13 14 15 16 17 18 19 20 21 22 23 24 25 26 27 28 29 30 31 32 33 34 35 36 37 38 39 40 41 42 43 44 45 46 47 48 49 50
000
ASHW40 PHFO 270343
RWRHI

WEATHER ROUNDUP FOR HAWAII
NATIONAL WEATHER SERVICE HONOLULU HI
500 PM HST THU APR 26 2018

THIS IS AN AUTOMATED REPORT THAT HAS NOT BEEN QUALITY CONTROLLED.

NOTE..."FAIR" INDICATES FEW OR NO CLOUDS BELOW 12,000 FEET WITH NO
SIGNIFICANT WEATHER AND/OR OBSTRUCTIONS TO VISIBILITY.

* - THESE SITES REPORT LIMITED FIELDS
# - BUOY DATA PROVIDED BY PACIFIC ISLANDS OCEAN OBSERVING SYSTEM.

HIZ001>004-270400-
KAUAI-NIIHAU-

CITY           SKY/WX    TMP DP  RH WIND       PRES   REMARKS
LIHUE APT      CLOUDY    74  70  87 E15       30.01F
PORT ALLEN*      N/A     79 N/A N/A E20G29      N/A
POIPU*           N/A     75 N/A N/A NE8G16      N/A
PRINCEVILLE*     N/A     70 N/A N/A E5          N/A
KOKOLE POINT*  NOT AVBL
MOLOAA DAIRY*    N/A     70  68  94 E3G9        N/A
WAIMEA HTS*      N/A     79  66  65 W5G12       N/A
PUU OPAE*        N/A    N/A N/A N/A W7          N/A
PUU LUA*       NOT AVBL
MAKAHA RIDGE*    N/A     75  63  64 NW2         N/A
$$

HIZ005>011-270400-
OAHU-

CITY           SKY/WX    TMP DP  RH WIND       PRES   REMARKS
HONOLULU       PTSUNNY   80  66  62 E5        29.96F
KALAELOA       MOSUNNY   79  69  71 SE8       29.98S
KANEOHE MCB    CLOUDY    75  70  84 E16G25    29.95F
WHEELER FIELD  CLOUDY    72  68  88 NE6       29.98S
BELLOWS*         N/A    N/A N/A N/A E20         N/A
KAHUKU*          N/A    N/A N/A N/A NE8G16      N/A
WHEELER*         N/A    N/A N/A N/A N6G12       N/A
WAIANAE HARBOR   N/A    N/A N/A N/A N3          N/A
DILLINGHAM*    NOT AVBL
KAHUKU TRN*      N/A     70  64  83 W9G20       N/A
KAWAILOA*        N/A     70  66  88 E3G18       N/A
KII*             N/A     73  66  78 NE17G23     N/A
MAKUA RANGE*   NOT AVBL
OAHU FOREST NW   N/A     66  63  88 SE8G18      N/A
SCHOFIELD BRK*   N/A    N/A N/A N/A E6          N/A
SCHOFIELD S*   NOT AVBL
WAIANAE VLY*     N/A     72 N/A N/A S3          N/A
KUAOKALA*        N/A     68  68 100 E7          N/A
HONOULIUULI*   NOT AVBL
MOKUOLOE IS*   NOT AVBL
PALEHUA*         N/A     66  66 100 NE6G12      N/A
WAIAWA PHB*    NOT AVBL
$$

HIZ012>013-270400-
MOLOKAI-

CITY           SKY/WX    TMP DP  RH WIND       PRES   REMARKS
MOLOKAI AIRPT  MOSUNNY   78  67  68 CALM      29.97F
KALAUPAPA      NOT AVBL
MAKAPULAPAI*     N/A     73  70  88 E10G23      N/A
MOLOKAI 1*     NOT AVBL
PUU ALII*        N/A     61  61  99 E2          N/A
$$

HIZ016-270400-
KAHOOLAWE-

CITY           SKY/WX    TMP DP  RH WIND       PRES   REMARKS
KAHOOLAWE*     NOT AVBL
HAKIOAWA*        N/A     72  69  89 MISG      30.38S
HONOKANAIA*    NOT AVBL
KANELOA*         N/A     75  70  83 E16G31    30.04F
KEALIALALO*    NOT AVBL
LUA MAKIKA*    NOT AVBL
$$

HIZ014>015-270400-
LANAI-

CITY           SKY/WX    TMP DP  RH WIND       PRES   REMARKS
LANAI CITY     PTSUNNY   72  66  83 E13       30.02S
LANAI 1*       NOT AVBL
$$

HIZ017>028-270400-
MAUI-

CITY           SKY/WX    TMP DP  RH WIND       PRES   REMARKS
KAHULUI        MOSUNNY   78  68  71 NE16G29   29.94F
KAPALUA-W MAUI PTSUNNY   73  68  83 NE12      29.97F
HANA AIRPORT   NOT AVBL
HANA*            N/A     72 N/A N/A E10G21      N/A
HALEAKALA SUMM   N/A     46  27  46 S5          N/A
MAALAEA BAY*     N/A     77 N/A N/A N16G23      N/A
HALEAKALA*     NOT AVBL
KAUPO GAP*     NOT AVBL
KULA 1*          N/A     57  53  85 NW3         N/A
$$

HIZ023>026-270400-
BIG ISLAND OF HAWAII COAST AND LOWER SLOPES-

CITY           SKY/WX    TMP DP  RH WIND       PRES   REMARKS
KAILUA KONA    CLOUDY    81  67  62 NW9       29.95S
HILO           HVY RAIN  71  69  93 CALM      30.00R FOG
HONOKAA*         N/A     68 N/A N/A VRB1        N/A
KAWAIHAE MWT*    N/A     82 N/A N/A W2G8        N/A
KAWAIHAE*        N/A     79 N/A N/A SW3       29.95S
SOUTH POINT*     N/A     70 N/A N/A N15G22      N/A
UPOLU AIRPORT* NOT AVBL
KAMUELA*       CLOUDY    70  61  73 SW5       30.07S
HAKALAU*         N/A     54  54 100 S3G12       N/A
KALOKO-HONOKO*   N/A     81  68  65 NW10      29.95S
PALI 2*          N/A     63  63 100 E9G15       N/A
KEALAKOMO*       N/A     73  70  88 NE9         N/A
KAUPULEHU*       N/A     75  64  69 W8          N/A
KAPAPALA*        N/A     66  65  97 N2G12       N/A
LOWER KAHUKU*    N/A     63  63 100 MISG        N/A
PUHE CS*         N/A     81  68  65 SW2         N/A
PUHO CS*         N/A     78  68  70 NW6G13      N/A
PTA KEAMUKU*     N/A    N/A N/A N/A SW6G12      N/A
WAIKOLOA*        N/A     77  63  61 W3G10       N/A
$$

HIZ027>028-270400-
BIG ISLAND OF HAWAII INTERIOR AND SUMMMITS-

CITY           SKY/WX    TMP DP  RH WIND       PRES   REMARKS
BRADSHAW FIELD FOG       55  54  94 W3        30.28R VSB 7/8
MK VISITOR CEN   N/A     45  43  93 SE7         N/A
MAUNA KEA*       N/A     39   7  26 SW16        N/A
MAUNA LOA*       N/A     43  37  81 MISG        N/A
MAUNA LOA 1*   NOT AVBL
PTA KIPUKA*      N/A     63  63 100 S6          N/A
PTA RANGE 17*    N/A    N/A N/A N/A SE7G14      N/A
PTA WEST*        N/A     61  59  94 NW7         N/A
NENE CABIN*      N/A     52  52 100 E6G13       N/A
AHUMOA*          N/A     53  53 100 W3          N/A
PTA PORTABLE*  NOT AVBL
PUU MALI*        N/A     54  54 100 W6          N/A
$$

HIC003-270400-
NORTHWEST ISLANDS-

CITY           SKY/WX    TMP DP  RH WIND       PRES   REMARKS
MIDWAY ISLAND  CLOUDY    70  55  60 NE20G30   30.33F
MIDWAY NOS*      N/A     66 N/A N/A MISG      30.32S
FRENCH FRIGATE NOT AVBL
$$

PHZ110>124-180-270400-
BUOY REPORTS

STATION/POSITION TIME  TEMP    WIND        PRES    WAVE   SWELL
                       AIR SEA DIR/SP/G            HT/PER HT/DIR
                 (UTC) (F)     (DEG/KT/KT) (MB)    (FT/S) (FT/D)
BUOY 51001       0310   81 81   60/ 17/ 21 1010.3
BUOY 51101       0250   73 74  110/ 12/ 14 1017.7F   7/14   7
BUOY 51100       NOT AVBL
BUOY 51002       0310   77 78   60/ 14/ 16 1013.0
BUOY 51003       0250   77 79   70/ 12/ 14 1013.3F   7/ 8   7/ 90
BUOY 51004       0310   77 78   80/ 19/ 23   N/A
WAIMEA BAY#      NOT AVBL
MOKAPU POINT#    0304      76                N/A     9/ 8   2/ 60
LANAI#           NOT AVBL
BARBERS PT 2#    NOT AVBL
PAUWELA#         0300      75                N/A     8/ 9   2/320
HILO#            0257      77                N/A     8/ 8   2/ 70
KANEOHE BAY#     NOT AVBL
KANEOHE BAY 2#   NOT AVBL
HANALEI#         0252      76                N/A     7/ 8   3/320
KAHULUI HARBOR   0312   74 78   50/ 15/ 21 1014.1
HONOLULU HARBOR  0312   79 78  110/  4/  8 1014.3
PEARL HARBOR#    0300      77                N/A     3/ 6   2/160
KILO NALU        NOT AVBL
HILO HARBOR      0312   71 76  310/  2/  3 1015.1
MOKUOLOE         0236   74 77   70/ 14/ 18 1014.9F
NAWILIWILI       0312   72 78   70/ 14/ 18 1015.5
WHOTS BUOY       NOT AVBL
BUOY 51028       NOT AVBL
$$

......................KEY........................................
  SKY/WX - SKY CONDITIONS/PRESENT WEATHER
  TMP    - TEMPERATURE IN FAHRENHEIT
  DWPT   - DEWPOINT IN FAHRENHEIT
  RH     - RELATIVE HUMIDITY IN PERCENT
  WIND   - DIRECTION AND SPEED /MPH FOR ISLANDS...KTS FOR BUOYS/
  PRES   - MEAN SEA LEVEL PRESSURE IN INCHES OF HG
  VSB    - VISIBILITY IN MILES
  HX     - HEAT INDEX
  WCI    - WIND CHILL INDEX
  VRB    - VARIABLE WIND DIRECTION
  N/A    - NOT AVAILABLE



USA.gov is the U.S. government's official web portal to all federal, state and local government web resources and services.